,,,PA_Meas_PMT16A,,PR_Meas_QMR101_102,,RH_Meas_QMH101,,SR_Meas_QMS101,,TA_Meas_QMH101,,GenWind,,GenWind,
date,time,status,PA,status,PR,status,RH,status,SR,status,TA,status,DirAvg,status,SpdAvg,
2009-05-10, 00:00:04,VALID,1004.2,VALID,0,VALID,90.593,VALID,0,VALID,24.0521,VALID,347,VALID,0,
2009-05-10, 00:01:04,VALID,1004.18,VALID,0,VALID,90.6998,VALID,0,VALID,24.0734,VALID,347,VALID,0.365234,
2009-05-10, 00:02:04,VALID,1004.18,VALID,0,VALID,90.7226,VALID,0,VALID,24.0929,VALID,348,VALID,0.639453,
2009-05-10, 00:03:04,VALID,1004.17,VALID,0,VALID,90.7837,VALID,0.100563,VALID,24.091,VALID,349,VALID,0.5125,
2009-05-10, 00:04:04,VALID,1004.17,VALID,0,VALID,90.6921,VALID,0,VALID,24.1494,VALID,354,VALID,0.717969,
2009-05-10, 00:05:04,VALID,1004.18,VALID,0,VALID,90.6158,VALID,0,VALID,24.1884,VALID,338,VALID,0.866797,
2009-05-10, 00:06:04,VALID,1004.18,VALID,0,VALID,90.3107,VALID,0.100563,VALID,24.2468,VALID,349,VALID,0.782812,
2009-05-10, 00:07:04,VALID,1004.15,VALID,0,VALID,89.9064,VALID,0,VALID,24.2857,VALID,353,VALID,0.794531,
2009-05-10, 00:08:04,VALID,1004.13,VALID,0,VALID,89.7919,VALID,0.100563,VALID,24.3654,VALID,351,VALID,0.677734,
2009-05-10, 00:09:04,VALID,1004.14,VALID,0,VALID,89.502,VALID,0,VALID,24.3636,VALID,348,VALID,0.682813,
2009-05-10, 00:10:04,VALID,1004.1,VALID,0,VALID,89.3342,VALID,0.100563,VALID,24.4025,VALID,352,VALID,0.741797,
2009-05-10, 00:11:04,VALID,1004.09,VALID,0,VALID,89.3418,VALID,0,VALID,24.383,VALID,352,VALID,0.552734,
2009-05-10, 00:12:04,VALID,1004.07,VALID,0,VALID,89.1969,VALID,0,VALID,24.4043,VALID,351,VALID,0.632422,
2009-05-10, 00:13:04,VALID,1004.04,VALID,0,VALID,89.2655,VALID,0.100563,VALID,24.383,VALID,360,VALID,0.516406,
2009-05-10, 00:14:04,VALID,1004.04,VALID,0,VALID,89.3876,VALID,0.100563,VALID,24.3636,VALID,360,VALID,0.493359,
2009-05-10, 00:15:04,VALID,1004.01,VALID,0,VALID,89.5707,VALID,0.100563,VALID,24.3849,VALID,359,VALID,0.425781,
2009-05-10, 00:16:04,VALID,1003.98,VALID,0,VALID,89.5097,VALID,0,VALID,24.3636,VALID,358,VALID,0.455859,
2009-05-10, 00:17:04,VALID,1003.97,VALID,0,VALID,89.4639,VALID,0,VALID,24.3849,VALID,357,VALID,0.494531,
2009-05-10, 00:18:04,VALID,1003.95,VALID,0,VALID,89.5097,VALID,0.100563,VALID,24.383,VALID,356,VALID,0.576172,
2009-05-10, 00:19:04,VALID,1003.91,VALID,0,VALID,89.441,VALID,0,VALID,24.4433,VALID,354,VALID,0.466406,
2009-05-10, 00:20:04,VALID,1003.88,VALID,0,VALID,89.2503,VALID,0,VALID,24.4628,VALID,351,VALID,0.525391,
2009-05-10, 00:21:04,VALID,1003.85,VALID,0,VALID,89.1892,VALID,0.100563,VALID,24.422,VALID,351,VALID,0.455859,
2009-05-10, 00:22:04,VALID,1003.81,VALID,0,VALID,89.235,VALID,0.100563,VALID,24.422,VALID,358,VALID,0.255078,
2009-05-10, 00:23:04,VALID,1003.8,VALID,0,VALID,89.2503,VALID,0.100563,VALID,24.4025,VALID,344,VALID,0.385156,
2009-05-10, 00:24:04,VALID,1003.74,VALID,0,VALID,89.1511,VALID,0.100563,VALID,24.383,VALID,344,VALID,0.298438,
2009-05-10, 00:25:04,VALID,1003.74,VALID,0,VALID,89.3418,VALID,0.100563,VALID,24.3849,VALID,344,VALID,0.425391,
2009-05-10, 00:26:04,VALID,1003.71,VALID,0,VALID,89.3647,VALID,0,VALID,24.3265,VALID,344,VALID,0.260156,
2009-05-10, 00:27:04,VALID,1003.72,VALID,0,VALID,89.5631,VALID,0,VALID,24.2662,VALID,344,VALID,0.3375,
2009-05-10, 00:28:04,VALID,1003.72,VALID,0,VALID,89.7767,VALID,0,VALID,24.2662,VALID,344,VALID,0.257422,
2009-05-10, 00:29:04,VALID,1003.69,VALID,0,VALID,89.6699,VALID,0,VALID,24.2273,VALID,344,VALID,0.325391,
2009-05-10, 00:30:04,VALID,1003.69,VALID,0,VALID,89.8148,VALID,0.100563,VALID,24.1689,VALID,344,VALID,0.262891,
2009-05-10, 00:31:04,VALID,1003.66,VALID,0,VALID,90.0208,VALID,0,VALID,24.1105,VALID,344,VALID,0.359375,
2009-05-10, 00:32:04,VALID,1003.66,VALID,0,VALID,90.1429,VALID,0.100563,VALID,24.0132,VALID,344,VALID,0.348437,
2009-05-10, 00:33:04,VALID,1003.62,VALID,0,VALID,90.5701,VALID,0.100563,VALID,23.9742,VALID,344,VALID,0.387891,
2009-05-10, 00:34:04,VALID,1003.63,VALID,0,VALID,90.9591,VALID,0.100563,VALID,23.9353,VALID,344,VALID,0.301953,
2009-05-10, 00:35:04,VALID,1003.6,VALID,0,VALID,91.0888,VALID,0.100563,VALID,23.9159,VALID,344,VALID,0.469141,
2009-05-10, 00:36:04,VALID,1003.57,VALID,0,VALID,91.2872,VALID,0.100563,VALID,23.8964,VALID,344,VALID,0.333203,
2009-05-10, 00:37:04,VALID,1003.55,VALID,0,VALID,91.1193,VALID,0,VALID,23.8593,VALID,344,VALID,0.389844,
2009-05-10, 00:38:04,VALID,1003.54,VALID,0,VALID,91.7068,VALID,0,VALID,23.838,VALID,344,VALID,0.452344,
2009-05-10, 00:39:04,VALID,1003.5,VALID,0,VALID,91.661,VALID,0,VALID,23.838,VALID,344,VALID,0.382031,
2009-05-10, 00:40:04,VALID,1003.46,VALID,0,VALID,91.5237,VALID,0,VALID,23.8203,VALID,344,VALID,0.340234,
2009-05-10, 00:41:04,VALID,1003.48,VALID,0,VALID,91.8594,VALID,0,VALID,23.8009,VALID,344,VALID,0.354297,
2009-05-10, 00:42:04,VALID,1003.49,VALID,0,VALID,91.7907,VALID,0,VALID,23.7619,VALID,344,VALID,0.502734,
2009-05-10, 00:43:04,VALID,1003.47,VALID,0,VALID,91.8594,VALID,0,VALID,23.7017,VALID,344,VALID,0.570703,
2009-05-10, 00:44:04,VALID,1003.47,VALID,0,VALID,91.9814,VALID,0,VALID,23.6859,VALID,344,VALID,0.414063,
2009-05-10, 00:45:04,VALID,1003.47,VALID,0,VALID,92.2408,VALID,0,VALID,23.6646,VALID,344,VALID,0.304688,
2009-05-10, 00:46:04,VALID,1003.46,VALID,0,VALID,92.2255,VALID,0,VALID,23.6452,VALID,344,VALID,0.471484,
2009-05-10, 00:47:04,VALID,1003.47,VALID,0,VALID,92.5765,VALID,0,VALID,23.6239,VALID,344,VALID,0.303516,
2009-05-10, 00:48:04,VALID,1003.45,VALID,0,VALID,92.3018,VALID,0,VALID,23.6062,VALID,344,VALID,0.282422,
2009-05-10, 00:49:04,VALID,1003.44,VALID,0,VALID,92.5231,VALID,0,VALID,23.5868,VALID,344,VALID,0.358984,
2009-05-10, 00:50:04,VALID,1003.46,VALID,0,VALID,92.4773,VALID,0,VALID,23.5673,VALID,344,VALID,0.437891,
2009-05-10, 00:51:04,VALID,1003.44,VALID,0,VALID,92.4849,VALID,0,VALID,23.4877,VALID,344,VALID,0.502344,
2009-05-10, 00:52:04,VALID,1003.43,VALID,0,VALID,92.8816,VALID,0,VALID,23.5478,VALID,344,VALID,0.414063,
2009-05-10, 00:53:04,VALID,1003.43,VALID,0,VALID,92.9121,VALID,0,VALID,23.5302,VALID,344,VALID,0.266797,
2009-05-10, 00:54:04,VALID,1003.42,VALID,0,VALID,92.8816,VALID,0,VALID,23.5089,VALID,344,VALID,0.451562,
2009-05-10, 00:55:04,VALID,1003.45,VALID,0,VALID,93.0647,VALID,0,VALID,23.5284,VALID,344,VALID,0.369141,
2009-05-10, 00:56:04,VALID,1003.43,VALID,0,VALID,93.0876,VALID,0,VALID,23.5089,VALID,344,VALID,0.344922,
2009-05-10, 00:57:04,VALID,1003.41,VALID,0,VALID,93.1257,VALID,0,VALID,23.4877,VALID,344,VALID,0.351563,
2009-05-10, 00:58:04,VALID,1003.43,VALID,0,VALID,93.0495,VALID,0,VALID,23.4682,VALID,344,VALID,0.437109,
2009-05-10, 00:59:04,VALID,1003.42,VALID,0,VALID,93.1715,VALID,0,VALID,23.47,VALID,344,VALID,0.473437,
2009-05-10, 01:00:04,VALID,1003.4,VALID,0,VALID,93.1563,VALID,0,VALID,23.4505,VALID,344,VALID,0.351172,
2009-05-10, 01:01:04,VALID,1003.41,VALID,0,VALID,93.0723,VALID,0,VALID,23.4311,VALID,344,VALID,0.4125,
2009-05-10, 01:02:04,VALID,1003.4,VALID,0,VALID,93.0495,VALID,0,VALID,23.3921,VALID,344,VALID,0.310156,
2009-05-10, 01:03:04,VALID,1003.39,VALID,0,VALID,93.0266,VALID,0,VALID,23.332,VALID,344,VALID,0.462109,
2009-05-10, 01:04:04,VALID,1003.37,VALID,0,VALID,93.1639,VALID,0,VALID,23.3337,VALID,344,VALID,0.339844,
2009-05-10, 01:05:04,VALID,1003.4,VALID,0,VALID,93.3317,VALID,0,VALID,23.3337,VALID,344,VALID,0.165625,
2009-05-10, 01:06:04,VALID,1003.39,VALID,0,VALID,93.3241,VALID,0,VALID,23.3125,VALID,344,VALID,0.340234,
2009-05-10, 01:07:04,VALID,1003.34,VALID,0,VALID,93.4996,VALID,0,VALID,23.3337,VALID,344,VALID,0.0753906,
2009-05-10, 01:08:04,VALID,1003.38,VALID,0,VALID,93.5758,VALID,0,VALID,23.3125,VALID,344,VALID,0.29375,
2009-05-10, 01:09:04,VALID,1003.38,VALID,0,VALID,93.3546,VALID,0,VALID,23.2948,VALID,344,VALID,0.388672,
2009-05-10, 01:10:04,VALID,1003.35,VALID,0,VALID,93.3928,VALID,0,VALID,23.2541,VALID,344,VALID,0.286719,
2009-05-10, 01:11:04,VALID,1003.36,VALID,0,VALID,93.4462,VALID,0,VALID,23.2559,VALID,344,VALID,0,
2009-05-10, 01:12:04,VALID,1003.35,VALID,0,VALID,93.5987,VALID,0,VALID,23.2152,VALID,344,VALID,0.341797,
2009-05-10, 01:13:04,VALID,1003.33,VALID,0,VALID,93.6674,VALID,0,VALID,23.2347,VALID,345,VALID,0.532031,
2009-05-10, 01:14:04,VALID,1003.33,VALID,0,VALID,93.7361,VALID,0,VALID,23.2771,VALID,345,VALID,0.316406,
2009-05-10, 01:15:04,VALID,1003.29,VALID,0,VALID,93.7818,VALID,0,VALID,23.2559,VALID,345,VALID,0.168359,
2009-05-10, 01:16:04,VALID,1003.29,VALID,0,VALID,93.7132,VALID,0,VALID,23.2364,VALID,345,VALID,0.198437,
2009-05-10, 01:17:04,VALID,1003.27,VALID,0,VALID,93.8123,VALID,0,VALID,23.1957,VALID,345,VALID,0,
2009-05-10, 01:18:04,VALID,1003.24,VALID,0,VALID,93.82,VALID,0,VALID,23.217,VALID,345,VALID,0.189453,
2009-05-10, 01:19:04,VALID,1003.23,VALID,0,VALID,93.82,VALID,0,VALID,23.1763,VALID,345,VALID,0.310156,
2009-05-10, 01:20:04,VALID,1003.19,VALID,0,VALID,93.7818,VALID,0,VALID,23.178,VALID,345,VALID,0.308984,
2009-05-10, 01:21:04,VALID,1003.19,VALID,0,VALID,93.7666,VALID,0,VALID,23.1586,VALID,345,VALID,0.501172,
2009-05-10, 01:22:04,VALID,1003.15,VALID,0,VALID,93.7895,VALID,0,VALID,23.1179,VALID,347,VALID,0.523828,
2009-05-10, 01:23:04,VALID,1003.15,VALID,0,VALID,93.7971,VALID,0,VALID,23.079,VALID,348,VALID,0.466016,
2009-05-10, 01:24:04,VALID,1003.11,VALID,0,VALID,93.8276,VALID,0,VALID,23.1002,VALID,348,VALID,0.473437,
2009-05-10, 01:25:04,VALID,1003.13,VALID,0,VALID,93.8963,VALID,0,VALID,23.0807,VALID,350,VALID,0.618359,
2009-05-10, 01:26:04,VALID,1003.1,VALID,0,VALID,93.9039,VALID,0,VALID,23.0595,VALID,354,VALID,0.662891,
2009-05-10, 01:27:04,VALID,1003.08,VALID,0,VALID,94.0488,VALID,0,VALID,23.0401,VALID,355,VALID,0.798437,
2009-05-10, 01:28:04,VALID,1003.05,VALID,0,VALID,94.1251,VALID,0,VALID,23.0595,VALID,355,VALID,0.685156,
2009-05-10, 01:29:04,VALID,1003.04,VALID,0,VALID,94.1709,VALID,0,VALID,23.0595,VALID,355,VALID,0.741016,
2009-05-10, 01:30:04,VALID,1003.02,VALID,0,VALID,94.2396,VALID,0,VALID,23.079,VALID,355,VALID,0.576563,
2009-05-10, 01:31:04,VALID,1003.01,VALID,0,VALID,94.2853,VALID,0,VALID,23.1002,VALID,355,VALID,0.620703,
2009-05-10, 01:32:04,VALID,1002.97,VALID,0,VALID,94.2853,VALID,0,VALID,23.079,VALID,355,VALID,0.487891,
2009-05-10, 01:33:04,VALID,1002.96,VALID,0,VALID,94.1633,VALID,0,VALID,23.0401,VALID,355,VALID,0.476953,
2009-05-10, 01:34:04,VALID,1002.92,VALID,0,VALID,94.0717,VALID,0,VALID,22.9834,VALID,1,VALID,0.665625,
2009-05-10, 01:35:04,VALID,1002.89,VALID,0,VALID,94.1633,VALID,0,VALID,22.964,VALID,6,VALID,0.470703,
2009-05-10, 01:36:04,VALID,1002.91,VALID,0,VALID,94.1556,VALID,0,VALID,22.9445,VALID,6,VALID,0.349609,
2009-05-10, 01:37:04,VALID,1002.94,VALID,0,VALID,94.1404,VALID,0,VALID,22.9056,VALID,6,VALID,0.345313,
2009-05-10, 01:38:04,VALID,1002.93,VALID,0,VALID,94.1633,VALID,0,VALID,22.8649,VALID,6,VALID,0.257031,
2009-05-10, 01:39:04,VALID,1002.93,VALID,0,VALID,94.2243,VALID,0,VALID,22.8667,VALID,6,VALID,0.233594,
2009-05-10, 01:40:04,VALID,1002.91,VALID,0,VALID,94.415,VALID,0,VALID,22.8861,VALID,6,VALID,0.215234,
2009-05-10, 01:41:04,VALID,1002.93,VALID,0,VALID,94.5142,VALID,0,VALID,22.9445,VALID,6,VALID,0.387891,
2009-05-10, 01:42:04,VALID,1002.91,VALID,0,VALID,94.5295,VALID,0,VALID,22.964,VALID,6,VALID,0.269922,
2009-05-10, 01:43:04,VALID,1002.91,VALID,0,VALID,94.5676,VALID,0,VALID,23.0029,VALID,6,VALID,0.458594,
2009-05-10, 01:44:04,VALID,1002.9,VALID,0,VALID,94.5905,VALID,0,VALID,23.0012,VALID,6,VALID,0.65,
2009-05-10, 01:45:04,VALID,1002.88,VALID,0,VALID,94.5752,VALID,0,VALID,23.0206,VALID,6,VALID,0.585156,
2009-05-10, 01:46:04,VALID,1002.9,VALID,0,VALID,94.6363,VALID,0,VALID,23.0401,VALID,5,VALID,0.777734,
2009-05-10, 01:47:04,VALID,1002.89,VALID,0,VALID,94.7049,VALID,0,VALID,23.079,VALID,2,VALID,0.682031,
2009-05-10, 01:48:04,VALID,1002.91,VALID,0,VALID,94.7278,VALID,0,VALID,23.1374,VALID,2,VALID,0.608594,
2009-05-10, 01:49:04,VALID,1002.91,VALID,0,VALID,94.4532,VALID,0,VALID,23.0613,VALID,2,VALID,0.61875,
2009-05-10, 01:50:04,VALID,1002.94,VALID,0,VALID,94.3235,VALID,0,VALID,22.9817,VALID,2,VALID,0.595703,
2009-05-10, 01:51:04,VALID,1002.9,VALID,0,VALID,94.3692,VALID,0,VALID,22.9622,VALID,2,VALID,0.649219,
2009-05-10, 01:52:04,VALID,1002.9,VALID,0,VALID,94.3845,VALID,0,VALID,22.9428,VALID,2,VALID,0.419922,
2009-05-10, 01:53:04,VALID,1002.88,VALID,0,VALID,94.5142,VALID,0,VALID,22.941,VALID,2,VALID,0.498828,
2009-05-10, 01:54:04,VALID,1002.9,VALID,0,VALID,94.6286,VALID,0,VALID,23.0029,VALID,360,VALID,0.560156,
2009-05-10, 01:55:04,VALID,1002.88,VALID,0,VALID,94.8346,VALID,0,VALID,23.0807,VALID,360,VALID,0.628125,
2009-05-10, 01:56:04,VALID,1002.88,VALID,0,VALID,94.8499,VALID,0,VALID,23.1374,VALID,360,VALID,0.662891,
2009-05-10, 01:57:04,VALID,1002.87,VALID,0,VALID,94.8575,VALID,0,VALID,23.217,VALID,360,VALID,0.564844,
2009-05-10, 01:58:04,VALID,1002.86,VALID,0,VALID,94.8041,VALID,0,VALID,23.2364,VALID,360,VALID,0.773828,
2009-05-10, 01:59:04,VALID,1002.86,VALID,0,VALID,94.7125,VALID,0,VALID,23.2577,VALID,360,VALID,0.592578,
2009-05-10, 02:00:04,VALID,1002.87,VALID,0,VALID,94.5752,VALID,0,VALID,23.1975,VALID,360,VALID,0.582812,
2009-05-10, 02:01:04,VALID,1002.88,VALID,0,VALID,94.4837,VALID,0,VALID,23.1374,VALID,360,VALID,0.635938,
2009-05-10, 02:02:04,VALID,1002.88,VALID,0,VALID,94.4379,VALID,0,VALID,23.079,VALID,360,VALID,0.592578,
2009-05-10, 02:03:04,VALID,1002.87,VALID,0,VALID,94.4455,VALID,0,VALID,23.0807,VALID,360,VALID,0.507813,
2009-05-10, 02:04:04,VALID,1002.91,VALID,0,VALID,94.4227,VALID,0,VALID,23.0206,VALID,360,VALID,0.407422,
2009-05-10, 02:05:04,VALID,1002.87,VALID,0,VALID,94.4989,VALID,0,VALID,23.0206,VALID,360,VALID,0.48125,
2009-05-10, 02:06:04,VALID,1002.9,VALID,0,VALID,94.5829,VALID,0,VALID,22.9994,VALID,360,VALID,0.460156,
2009-05-10, 02:07:04,VALID,1002.88,VALID,0,VALID,94.6591,VALID,0,VALID,23.0613,VALID,360,VALID,0.417188,
2009-05-10, 02:08:04,VALID,1002.87,VALID,0,VALID,94.7049,VALID,0,VALID,23.079,VALID,360,VALID,0.444922,
2009-05-10, 02:09:04,VALID,1002.9,VALID,0,VALID,94.7736,VALID,0,VALID,23.0984,VALID,360,VALID,0.311328,
2009-05-10, 02:10:04,VALID,1002.88,VALID,0,VALID,94.6439,VALID,0,VALID,23.079,VALID,360,VALID,0.363281,
2009-05-10, 02:11:04,VALID,1002.87,VALID,0,VALID,94.6134,VALID,0,VALID,23.0595,VALID,360,VALID,0.199609,
2009-05-10, 02:12:04,VALID,1002.89,VALID,0,VALID,94.6591,VALID,0,VALID,23.079,VALID,360,VALID,0.0046875,
2009-05-10, 02:13:04,VALID,1002.88,VALID,0,VALID,94.621,VALID,0,VALID,23.0595,VALID,360,VALID,0.245703,
2009-05-10, 02:14:04,VALID,1002.86,VALID,0,VALID,94.6439,VALID,0,VALID,23.0401,VALID,360,VALID,0.226563,
2009-05-10, 02:15:04,VALID,1002.89,VALID,0,VALID,94.6897,VALID,0,VALID,23.0595,VALID,360,VALID,0.180078,
2009-05-10, 02:16:04,VALID,1002.9,VALID,0,VALID,94.7354,VALID,0,VALID,23.0578,VALID,360,VALID,0.115625,
2009-05-10, 02:17:04,VALID,1002.89,VALID,0,VALID,94.7202,VALID,0,VALID,23.079,VALID,360,VALID,0.398438,
2009-05-10, 02:18:04,VALID,1002.89,VALID,0,VALID,94.6668,VALID,0,VALID,23.1002,VALID,360,VALID,0.349219,
2009-05-10, 02:19:04,VALID,1002.87,VALID,0,VALID,94.5981,VALID,0,VALID,23.0595,VALID,360,VALID,0.308203,
2009-05-10, 02:20:04,VALID,1002.87,VALID,0,VALID,94.4684,VALID,0,VALID,23.0012,VALID,360,VALID,0.482422,
2009-05-10, 02:21:04,VALID,1002.87,VALID,0,VALID,94.3387,VALID,0,VALID,22.9233,VALID,360,VALID,0.491016,
2009-05-10, 02:22:04,VALID,1002.86,VALID,0,VALID,94.3311,VALID,0,VALID,22.9039,VALID,360,VALID,0.446094,
2009-05-10, 02:23:04,VALID,1002.86,VALID,0,VALID,94.3235,VALID,0,VALID,22.8649,VALID,360,VALID,0.491406,
2009-05-10, 02:24:04,VALID,1002.82,VALID,0,VALID,94.4303,VALID,0,VALID,22.8455,VALID,360,VALID,0.551562,
2009-05-10, 02:25:04,VALID,1002.82,VALID,0,VALID,94.4684,VALID,0.100563,VALID,22.826,VALID,360,VALID,0.382031,
2009-05-10, 02:26:04,VALID,1002.83,VALID,0,VALID,94.6668,VALID,0,VALID,22.8649,VALID,360,VALID,0.305078,
2009-05-10, 02:27:04,VALID,1002.83,VALID,0,VALID,94.7736,VALID,0,VALID,22.9622,VALID,360,VALID,0.431641,
2009-05-10, 02:28:04,VALID,1002.82,VALID,0,VALID,94.5905,VALID,0.100563,VALID,22.9039,VALID,360,VALID,0.410156,
2009-05-10, 02:29:04,VALID,1002.82,VALID,0,VALID,94.4608,VALID,0.100563,VALID,22.8455,VALID,360,VALID,0.462109,
2009-05-10, 02:30:04,VALID,1002.81,VALID,0,VALID,94.4989,VALID,0,VALID,22.826,VALID,360,VALID,0.221484,
2009-05-10, 02:31:04,VALID,1002.8,VALID,0,VALID,94.6744,VALID,0,VALID,22.8844,VALID,348,VALID,0.197656,
2009-05-10, 02:32:04,VALID,1002.8,VALID,0,VALID,94.6363,VALID,0,VALID,22.8844,VALID,355,VALID,0.364844,
2009-05-10, 02:33:04,VALID,1002.82,VALID,0,VALID,94.6744,VALID,0,VALID,22.9021,VALID,355,VALID,0.171094,
2009-05-10, 02:34:04,VALID,1002.82,VALID,0,VALID,94.6591,VALID,0.100563,VALID,22.9216,VALID,355,VALID,0.239063,
2009-05-10, 02:35:04,VALID,1002.8,VALID,0,VALID,94.6134,VALID,0.100563,VALID,22.9428,VALID,355,VALID,0.308203,
2009-05-10, 02:36:04,VALID,1002.82,VALID,0,VALID,94.6897,VALID,0,VALID,22.9817,VALID,355,VALID,0.239063,
2009-05-10, 02:37:04,VALID,1002.8,VALID,0,VALID,94.6363,VALID,0,VALID,23.0224,VALID,355,VALID,0.356641,
2009-05-10, 02:38:04,VALID,1002.82,VALID,0,VALID,94.6363,VALID,0.100563,VALID,23.0206,VALID,355,VALID,0.112891,
2009-05-10, 02:39:04,VALID,1002.83,VALID,0,VALID,94.621,VALID,0,VALID,23.0401,VALID,355,VALID,0.00820312,
2009-05-10, 02:40:04,VALID,1002.81,VALID,0,VALID,94.6744,VALID,0,VALID,23.079,VALID,355,VALID,0.2375,
2009-05-10, 02:41:04,VALID,1002.81,VALID,0,VALID,94.4379,VALID,0,VALID,23.0595,VALID,356,VALID,0.285937,
2009-05-10, 02:42:04,VALID,1002.8,VALID,0,VALID,94.354,VALID,0.100563,VALID,23.0401,VALID,356,VALID,0.336719,
2009-05-10, 02:43:04,VALID,1002.77,VALID,0,VALID,94.3311,VALID,0,VALID,23.0401,VALID,356,VALID,0.391797,
2009-05-10, 02:44:04,VALID,1002.78,VALID,0,VALID,94.2701,VALID,0,VALID,22.9994,VALID,356,VALID,0.398438,
2009-05-10, 02:45:04,VALID,1002.77,VALID,0,VALID,94.3158,VALID,0,VALID,23.0401,VALID,356,VALID,0.514453,
2009-05-10, 02:46:04,VALID,1002.76,VALID,0,VALID,94.4913,VALID,0,VALID,23.079,VALID,356,VALID,0.416406,
2009-05-10, 02:47:04,VALID,1002.75,VALID,0,VALID,94.5905,VALID,0,VALID,23.1179,VALID,356,VALID,0.385547,
2009-05-10, 02:48:04,VALID,1002.74,VALID,0,VALID,94.3769,VALID,0.100563,VALID,23.1374,VALID,356,VALID,0.537109,
2009-05-10, 02:49:04,VALID,1002.69,VALID,0,VALID,94.2243,VALID,0.100563,VALID,23.1179,VALID,356,VALID,0.535937,
2009-05-10, 02:50:04,VALID,1002.73,VALID,0,VALID,94.2014,VALID,0.100563,VALID,23.0984,VALID,356,VALID,0.478516,
2009-05-10, 02:51:04,VALID,1002.7,VALID,0,VALID,94.1633,VALID,0,VALID,23.1197,VALID,356,VALID,0.50625,
2009-05-10, 02:52:04,VALID,1002.71,VALID,0,VALID,94.1785,VALID,0.100563,VALID,23.0772,VALID,356,VALID,0.486719,
2009-05-10, 02:53:04,VALID,1002.7,VALID,0,VALID,94.1404,VALID,0,VALID,23.079,VALID,356,VALID,0.523047,
2009-05-10, 02:54:04,VALID,1002.7,VALID,0,VALID,94.3082,VALID,0.100563,VALID,23.0772,VALID,356,VALID,0.317578,
2009-05-10, 02:55:04,VALID,1002.74,VALID,0,VALID,94.3769,VALID,0.100563,VALID,23.1374,VALID,356,VALID,0.388672,
2009-05-10, 02:56:04,VALID,1002.76,VALID,0,VALID,94.3692,VALID,0.100563,VALID,23.1763,VALID,356,VALID,0.39375,
2009-05-10, 02:57:04,VALID,1002.74,VALID,0,VALID,94.3235,VALID,0.100563,VALID,23.1763,VALID,356,VALID,0.278125,
2009-05-10, 02:58:04,VALID,1002.76,VALID,0,VALID,94.1862,VALID,0.100563,VALID,23.1568,VALID,356,VALID,0.495703,
2009-05-10, 02:59:04,VALID,1002.77,VALID,0,VALID,94.0259,VALID,0,VALID,23.0984,VALID,356,VALID,0.501562,
2009-05-10, 03:00:04,VALID,1002.77,VALID,0,VALID,93.9115,VALID,0.100563,VALID,23.0595,VALID,356,VALID,0.500781,
2009-05-10, 03:01:04,VALID,1002.79,VALID,0,VALID,93.9115,VALID,0,VALID,22.9994,VALID,356,VALID,0.482812,
2009-05-10, 03:02:04,VALID,1002.81,VALID,0,VALID,93.8657,VALID,0,VALID,22.941,VALID,356,VALID,0.437109,
2009-05-10, 03:03:04,VALID,1002.82,VALID,0,VALID,93.8047,VALID,0.100563,VALID,22.9039,VALID,356,VALID,0.378906,
2009-05-10, 03:04:04,VALID,1002.83,VALID,0,VALID,93.8505,VALID,0.100563,VALID,22.8649,VALID,356,VALID,0.396094,
2009-05-10, 03:05:04,VALID,1002.85,VALID,0,VALID,93.942,VALID,0.100563,VALID,22.8438,VALID,356,VALID,0.328906,
2009-05-10, 03:06:04,VALID,1002.88,VALID,0,VALID,94.1022,VALID,0,VALID,22.8649,VALID,356,VALID,0.339453,
2009-05-10, 03:07:04,VALID,1002.9,VALID,0,VALID,94.2243,VALID,0.100563,VALID,22.8844,VALID,356,VALID,0.275781,
2009-05-10, 03:08:04,VALID,1002.92,VALID,0,VALID,94.2624,VALID,0.100563,VALID,22.8827,VALID,356,VALID,0.333984,
2009-05-10, 03:09:04,VALID,1002.9,VALID,0,VALID,94.2396,VALID,0,VALID,22.9039,VALID,356,VALID,0.358984,
2009-05-10, 03:10:04,VALID,1002.93,VALID,0,VALID,94.293,VALID,0,VALID,22.8632,VALID,356,VALID,0.473047,
2009-05-10, 03:11:04,VALID,1002.94,VALID,0,VALID,94.3998,VALID,0,VALID,22.9039,VALID,356,VALID,0.402344,
2009-05-10, 03:12:04,VALID,1002.93,VALID,0,VALID,94.4227,VALID,0.100563,VALID,22.9233,VALID,356,VALID,0.199609,
2009-05-10, 03:13:04,VALID,1002.92,VALID,0,VALID,94.2624,VALID,0.100563,VALID,22.9039,VALID,356,VALID,0.472266,
2009-05-10, 03:14:04,VALID,1002.92,VALID,0,VALID,94.2243,VALID,0,VALID,22.8455,VALID,356,VALID,0.405859,
2009-05-10, 03:15:04,VALID,1002.93,VALID,0,VALID,94.1633,VALID,0,VALID,22.7871,VALID,356,VALID,0.24375,
2009-05-10, 03:16:04,VALID,1002.94,VALID,0,VALID,94.2701,VALID,0.100563,VALID,22.8066,VALID,356,VALID,0.432031,
2009-05-10, 03:17:04,VALID,1002.95,VALID,0,VALID,94.5523,VALID,0,VALID,22.8048,VALID,356,VALID,0.316797,
2009-05-10, 03:18:04,VALID,1002.98,VALID,0,VALID,94.5447,VALID,0,VALID,22.8438,VALID,356,VALID,0.379687,
2009-05-10, 03:19:04,VALID,1002.96,VALID,0,VALID,94.5905,VALID,0,VALID,22.8844,VALID,356,VALID,0.433203,
2009-05-10, 03:20:04,VALID,1002.98,VALID,0,VALID,94.6057,VALID,0.100563,VALID,22.9039,VALID,356,VALID,0,
2009-05-10, 03:21:04,VALID,1003.01,VALID,0,VALID,94.5371,VALID,0.100563,VALID,22.9251,VALID,356,VALID,0,
2009-05-10, 03:22:04,VALID,1002.99,VALID,0,VALID,94.5066,VALID,0,VALID,22.8844,VALID,356,VALID,0.515234,
2009-05-10, 03:23:04,VALID,1003.04,VALID,0,VALID,94.4761,VALID,0,VALID,22.8649,VALID,356,VALID,0.339453,
2009-05-10, 03:24:04,VALID,1003.04,VALID,0,VALID,94.5371,VALID,0,VALID,22.8455,VALID,356,VALID,0.296875,
2009-05-10, 03:25:04,VALID,1003.05,VALID,0,VALID,94.5829,VALID,0,VALID,22.8649,VALID,356,VALID,0.2,
2009-05-10, 03:26:04,VALID,1003.1,VALID,0,VALID,94.6591,VALID,0.100563,VALID,22.8827,VALID,356,VALID,0.312109,
2009-05-10, 03:27:04,VALID,1003.08,VALID,0,VALID,94.6057,VALID,0,VALID,22.9056,VALID,356,VALID,0.301953,
2009-05-10, 03:28:04,VALID,1003.08,VALID,0,VALID,94.6057,VALID,0,VALID,22.9056,VALID,356,VALID,0.35625,
2009-05-10, 03:29:04,VALID,1003.11,VALID,0,VALID,94.4913,VALID,0,VALID,22.8455,VALID,356,VALID,0.440234,
2009-05-10, 03:30:04,VALID,1003.09,VALID,0,VALID,94.4837,VALID,0,VALID,22.8472,VALID,356,VALID,0.494922,
2009-05-10, 03:31:04,VALID,1003.11,VALID,0,VALID,94.4608,VALID,0,VALID,22.8083,VALID,356,VALID,0.482812,
2009-05-10, 03:32:04,VALID,1003.09,VALID,0,VALID,94.4837,VALID,0,VALID,22.7888,VALID,356,VALID,0.549609,
2009-05-10, 03:33:04,VALID,1003.11,VALID,0,VALID,94.4379,VALID,0,VALID,22.7694,VALID,356,VALID,0.484375,
2009-05-10, 03:34:04,VALID,1003.17,VALID,0,VALID,94.5981,VALID,0,VALID,22.7906,VALID,356,VALID,0.536719,
2009-05-10, 03:35:04,VALID,1003.16,VALID,0,VALID,94.766,VALID,0,VALID,22.8278,VALID,356,VALID,0.376953,
2009-05-10, 03:36:04,VALID,1003.17,VALID,0,VALID,94.8117,VALID,0,VALID,22.8861,VALID,355,VALID,0.408203,
2009-05-10, 03:37:04,VALID,1003.17,VALID,0,VALID,94.7354,VALID,0,VALID,22.8861,VALID,355,VALID,0.303906,
2009-05-10, 03:38:04,VALID,1003.17,VALID,0,VALID,94.6363,VALID,0,VALID,22.8667,VALID,355,VALID,0.285937,
2009-05-10, 03:39:04,VALID,1003.17,VALID,0,VALID,94.5905,VALID,0,VALID,22.8472,VALID,355,VALID,0.438281,
2009-05-10, 03:40:04,VALID,1003.15,VALID,0,VALID,94.621,VALID,0,VALID,22.8278,VALID,355,VALID,0.2875,
2009-05-10, 03:41:04,VALID,1003.18,VALID,0,VALID,94.5981,VALID,0,VALID,22.8489,VALID,355,VALID,0.28125,
2009-05-10, 03:42:04,VALID,1003.17,VALID,0,VALID,94.5752,VALID,0,VALID,22.8472,VALID,355,VALID,0.427344,